Wetbulb
51.06 50.54 50.02 53.32 53.17 50.62 50.89 54.47 57.08 58.84 61.05 59.85 57.36 56.61 59.60 62.71 64.03 63.83 64.61 65.26 65.92 67.07 69.33 70.38 71.05 71.80 72.29 73.19 73.30 73.75 73.59 74.53 74.28 73.69 73.15 72.80 72.43 73.65 74.57 76.34 76.17 76.37 75.82 76.43
49.31 46.93 53.47 53.41 50.31 50.72 59.10 57.60 56.47 59.12 60.02 58.86 57.51 57.56 60.26 62.09 63.03 64.03 64.35 65.21 66.23 67.42 68.45 69.41 70.44 71.62 71.94 72.63 73.31 73.77 73.64 74.15 74.65 74.42 74.48 74.59 73.36 73.83 74.53 75.32 76.30 76.26 76.24 76.82
47.69 50.02 54.12 51.70 49.46 48.99 52.24 54.09 56.44 56.57 58.69 59.59 58.77 56.27 58.80 61.92 63.46 64.47 65.36 65.72 66.60 67.27 67.37 68.86 69.82 71.09 71.98 72.38 72.95 73.34 74.16 74.53 75.05 75.28 74.89 74.39 74.32 74.38 72.62 73.44 74.85 75.74 76.60 76.46
50.91 51.39 52.31 49.64 49.43 50.41 47.99 53.08 58.74 56.77 54.99 51.73 57.06 47.62 54.64 59.55 60.71 62.22 63.70 64.93 64.94 66.93 68.52 69.29 69.97 70.62 71.49 72.38 73.35 73.80 74.41 74.35 74.87 75.62 74.88 74.49 75.42 73.84 74.07 73.34 75.05 75.60 76.65 76.40
49.41 49.61 49.13 48.62 50.15 50.76 49.31 53.04 59.04 57.30 55.07 54.39 53.49 51.06 53.89 58.76 58.10 60.65 63.20 64.75 65.16 66.66 68.05 68.76 69.84 71.05 71.91 72.79 72.87 73.33 74.18 73.85 74.88 75.47 75.91 76.62 75.83 76.71 74.23 73.93 75.14 75.98 76.54 76.81
50.29 51.98 52.41 51.76 51.76 52.05 55.59 57.92 57.31 56.43 54.82 46.45 52.38 52.05 52.12 55.82 57.44 60.62 63.12 64.54 65.99 66.34 67.79 69.08 70.59 71.73 70.95 72.79 72.77 72.96 73.65 73.70 74.47 75.21 75.35 75.45 75.20 74.51 73.58 73.95 75.09 76.91 77.23 77.53
49.13 48.91 50.99 51.39 48.99 51.51 54.42 52.50 46.82 46.15 46.56 45.42 52.49 52.19 53.97 59.32 61.23 62.12 62.19 64.27 65.58 66.99 67.23 68.41 69.35 70.31 70.98 71.03 72.15 72.75 73.41 73.60 73.83 73.97 74.65 75.00 74.96 74.53 74.81 75.88 74.13 74.71 74.99 76.32
44.76 42.78 49.27 50.71 50.36 48.17 53.88 52.06 46.55 40.52 42.55 46.72 53.08 49.89 53.79 60.66 62.81 64.60 64.63 64.46 65.51 66.54 67.23 68.24 69.57 70.39 69.67 71.00 70.15 72.41 72.81 73.38 73.68 73.59 74.31 74.98 75.28 74.38 74.43 75.38 74.90 73.88 75.32 78.13
44.19 43.90 49.72 50.45 51.53 51.34 47.73 46.46 52.89 48.57 48.57 48.42 51.78 53.99 57.85 61.11 61.23 63.54 63.81 64.30 64.63 65.49 67.21 68.03 69.69 69.72 70.41 71.40 71.20 72.40 72.91 73.11 73.42 73.66 74.98 74.91 74.97 74.38 74.07 74.59 75.57 75.04 75.50 76.12
47.30 43.68 48.92 50.56 51.21 50.77 50.38 52.18 45.73 47.65 43.63 42.68 48.47 50.60 54.21 57.26 59.02 61.44 62.59 63.19 64.88 66.27 66.98 68.07 69.37 68.92 69.72 70.92 70.48 73.03 73.24 73.32 73.32 74.04 74.80 75.42 75.45 75.33 75.08 74.84 74.91 74.51 75.01 75.34
49.11 47.05 47.38 49.29 48.52 48.09 48.47 48.00 48.55 49.62 48.21 45.89 45.54 50.23 58.34 58.76 60.69 61.59 63.46 64.05 65.49 65.66 66.64 68.05 67.81 68.13 69.11 70.52 70.27 71.11 73.04 73.33 73.03 73.41 74.12 74.54 75.01 75.40 75.27 74.83 75.03 74.67 75.10 75.51
48.96 47.71 45.06 46.74 49.46 49.99 51.33 50.35 51.31 45.92 46.49 50.47 50.29 51.69 61.05 61.99 62.65 63.24 63.02 64.43 65.15 65.89 66.54 67.44 67.23 69.56 70.05 69.14 69.01 70.56 72.40 72.91 73.85 74.19 74.49 74.48 75.45 75.53 75.02 75.02 75.37 75.54 74.34 75.48
49.16 45.56 43.64 44.44 47.35 48.76 48.05 47.84 50.30 52.54 53.24 50.48 47.95 50.41 61.03 62.50 62.47 63.36 62.17 63.54 64.53 65.53 66.13 66.97 66.92 67.52 68.57 68.21 68.39 68.11 70.73 72.33 72.99 73.49 73.96 74.31 74.64 75.10 75.31 75.64 75.74 76.16 76.37 76.40
51.75 45.31 44.77 43.36 44.86 47.35 46.02 47.58 48.73 49.69 48.34 49.88 50.91 52.82 57.52 59.45 61.19 60.95 61.79 62.93 63.65 64.59 65.21 66.20 67.24 68.01 68.48 67.86 67.14 67.97 68.11 69.25 69.92 70.73 71.22 72.41 72.74 73.12 73.62 74.70 75.22 75.71 76.54 76.54
49.31 43.95 45.77 46.00 46.81 48.11 48.92 47.88 48.03 47.06 49.08 48.47 51.98 53.99 57.46 59.95 60.87 61.60 62.23 62.48 62.72 62.42 63.06 64.65 65.95 66.28 66.85 66.89 67.67 67.23 68.35 69.62 70.51 70.33 70.40 70.92 72.60 72.57 72.48 72.48 73.17 73.21 74.47 75.44
50.30 45.42 45.94 44.89 46.89 46.07 48.06 50.31 51.45 51.48 50.25 52.80 54.47 54.56 61.15 61.70 61.70 60.53 61.13 61.14 60.14 60.66 61.79 63.35 64.24 63.90 64.18 64.09 64.68 65.67 66.18 68.67 70.70 69.22 68.62 69.24 71.34 70.79 71.56 71.34 71.66 71.78 72.66 74.10
47.90 47.74 45.38 41.89 46.13 45.43 44.18 49.30 51.28 51.90 54.06 54.59 52.75 56.73 60.76 59.08 59.32 58.76 58.72 58.71 57.93 58.75 59.21 59.56 58.95 58.72 59.23 60.40 61.79 61.01 61.40 63.50 64.02 65.09 67.70 67.74 66.69 70.42 71.61 71.83 71.73 71.05 72.08 73.12
46.66 45.34 46.02 42.61 45.50 38.43 45.61 53.15 53.05 53.71 54.25 56.07 56.85 58.72 59.69 58.23 56.86 57.91 59.27 57.32 56.76 57.09 57.56 57.85 57.39 56.95 57.20 57.78 58.06 59.15 59.41 59.47 60.36 61.50 64.40 64.08 63.28 63.63 65.45 67.40 68.28 69.39 71.00 71.36
46.82 45.70 41.63 39.77 40.50 43.67 45.71 49.81 50.14 49.74 51.37 56.49 56.90 57.04 55.14 54.12 54.34 54.30 57.95 58.46 57.10 57.76 58.06 57.14 56.72 56.23 56.29 55.95 56.64 55.81 56.29 58.29 59.33 58.96 61.56 62.42 63.06 63.08 63.26 63.28 63.20 64.17 66.05 67.02
47.35 46.50 44.81 41.30 39.47 37.60 45.95 48.50 51.23 50.19 46.50 56.42 57.99 55.58 53.15 54.18 52.53 53.44 54.66 55.36 56.70 58.79 56.37 54.75 54.59 54.56 53.76 53.79 54.52 54.11 54.95 56.09 56.50 58.98 59.36 60.10 60.45 61.88 61.41 61.90 62.80 64.42 65.92 65.98
42.85 42.84 40.70 41.24 40.70 43.03 47.49 49.51 51.06 43.13 46.23 56.85 58.21 56.99 55.10 55.67 57.81 56.15 55.78 55.19 57.99 58.83 56.79 54.17 54.56 54.76 55.21 56.04 56.10 55.37 55.03 54.87 56.56 57.84 57.85 58.32 59.37 59.02 59.53 58.82 60.10 60.85 61.31 61.92
42.43 41.24 41.31 40.45 39.54 37.44 49.29 49.60 46.60 49.54 51.62 55.69 57.45 57.90 57.47 55.85 54.74 55.53 56.21 55.58 55.87 54.89 54.70 55.47 54.94 54.42 54.96 55.40 55.13 53.99 53.61 54.47 55.78 56.53 56.72 56.62 57.23 57.28 57.75 58.72 57.66 58.08 58.42 58.70
42.83 45.93 45.42 43.96 44.10 48.61 49.92 49.49 51.72 51.44 50.32 53.76 57.76 58.06 56.29 54.54 54.04 55.20 54.36 53.06 53.70 54.50 54.09 54.41 53.76 52.86 53.05 54.06 54.34 52.50 52.63 53.85 54.43 54.55 53.98 53.99 54.53 55.30 56.06 56.05 55.36 55.53 55.64 55.92
45.10 46.70 46.67 46.46 48.37 48.90 49.54 50.83 51.65 52.73 52.53 53.92 57.39 56.21 55.94 54.56 54.58 54.08 53.70 52.22 50.72 51.26 51.36 52.85 53.01 52.34 51.59 52.18 51.93 51.92 51.96 52.74 52.81 52.14 51.65 52.14 52.06 52.66 53.82 53.98 53.49 53.08 53.13 53.90
47.03 46.68 45.64 46.18 48.85 49.73 50.07 50.68 51.13 53.03 53.89 54.37 55.56 55.54 54.64 54.35 53.54 53.88 53.55 52.44 51.15 51.06 51.95 51.67 51.77 51.85 50.93 51.22 51.30 51.35 51.41 51.84 50.76 49.97 49.73 49.82 50.16 50.51 50.68 50.76 51.08 51.51 49.27 48.78
47.97 47.50 46.09 44.75 48.97 50.08 49.53 51.28 51.97 51.87 52.92 54.08 54.57 53.84 54.55 54.70 53.11 52.13 50.50 49.43 50.35 51.76 51.62 51.50 51.27 51.23 50.39 50.61 50.40 50.28 50.96 51.16 49.90 48.70 48.30 47.98 48.41 48.30 48.64 48.88 47.53 43.57 43.84 42.19
MSLP
1010.66 1010.03 1009.52 1009.54 1009.19 1008.86 1008.58 1008.74 1009.24 1010.65 1011.95 1012.47 1013.25 1013.77 1014.17 1014.52 1014.43 1014.56 1014.72 1014.86 1015.08 1015.11 1015.56 1016.23 1016.90 1017.34 1017.77 1018.56 1019.08 1019.47 1020.00 1020.48 1020.74 1021.05 1021.30 1021.51 1021.46 1021.76 1021.92 1021.99 1022.19 1022.33 1022.46 1022.52
1010.60 1009.40 1009.64 1009.45 1009.42 1008.99 1008.59 1008.61 1009.78 1011.02 1011.55 1012.07 1013.14 1013.48 1013.73 1014.08 1014.18 1014.10 1014.26 1014.46 1014.52 1014.86 1015.50 1016.11 1016.63 1017.20 1017.63 1018.16 1018.80 1019.38 1019.76 1020.36 1020.70 1020.81 1021.08 1021.11 1021.44 1021.76 1021.87 1022.12 1022.30 1022.30 1022.42 1022.55
1009.28 1009.14 1009.38 1009.24 1009.22 1008.86 1008.77 1008.72 1009.56 1009.93 1011.31 1011.76 1012.14 1012.81 1013.42 1013.90 1014.07 1014.27 1014.09 1014.05 1014.06 1014.46 1015.09 1015.65 1016.32 1016.77 1017.37 1017.83 1018.36 1019.08 1019.65 1020.12 1020.47 1020.70 1021.02 1021.23 1021.46 1021.82 1022.02 1022.12 1022.14 1022.24 1022.40 1022.42
1008.99 1009.02 1008.83 1008.82 1008.68 1008.72 1008.50 1008.96 1009.45 1010.00 1010.30 1010.90 1011.74 1012.54 1012.87 1013.24 1013.60 1013.77 1013.73 1013.52 1013.70 1014.12 1014.61 1015.02 1015.62 1016.26 1016.82 1017.42 1018.09 1018.88 1019.52 1020.04 1020.43 1020.60 1020.80 1020.84 1020.92 1021.32 1021.46 1021.72 1021.84 1021.91 1022.26 1022.38
1008.46 1008.46 1008.63 1008.49 1008.27 1008.62 1008.51 1008.88 1009.36 1009.90 1010.10 1010.41 1011.08 1011.46 1011.90 1012.52 1012.71 1012.57 1012.92 1013.12 1013.28 1013.50 1014.02 1014.43 1015.02 1015.41 1016.14 1017.04 1017.72 1018.53 1019.46 1019.97 1020.32 1020.59 1020.62 1020.83 1021.09 1021.28 1021.43 1021.66 1021.82 1021.95 1022.09 1022.43
1008.32 1008.41 1008.21 1008.06 1008.35 1008.39 1008.78 1009.14 1009.88 1010.34 1010.34 1009.92 1009.96 1010.68 1010.93 1011.17 1010.44 1011.60 1012.06 1012.45 1012.68 1013.00 1013.48 1013.93 1014.42 1015.24 1016.12 1016.81 1017.54 1018.18 1019.11 1019.80 1020.23 1020.60 1020.68 1020.76 1020.80 1021.12 1021.18 1021.46 1021.71 1021.94 1022.06 1022.22
1008.15 1008.16 1008.00 1007.98 1008.04 1008.51 1008.32 1008.35 1009.18 1009.84 1009.93 1009.09 1009.98 1010.10 1008.99 1010.09 1009.94 1010.18 1010.91 1011.50 1012.08 1012.59 1013.14 1013.76 1014.54 1015.12 1015.92 1016.71 1017.46 1018.07 1018.86 1019.55 1020.02 1020.40 1020.67 1020.80 1020.79 1020.90 1021.17 1021.39 1021.52 1021.71 1021.76 1021.94
1007.77 1007.85 1007.66 1007.74 1007.49 1007.52 1007.90 1007.55 1007.26 1007.72 1008.36 1008.59 1009.86 1009.24 1008.96 1009.78 1009.68 1009.70 1010.48 1011.38 1011.97 1012.42 1012.98 1013.57 1014.12 1015.06 1015.91 1016.60 1017.68 1018.08 1018.74 1019.39 1019.89 1020.28 1020.61 1020.91 1021.05 1021.03 1021.16 1021.31 1021.48 1021.65 1021.56 1021.78
1007.78 1007.56 1007.21 1007.09 1007.16 1007.38 1007.67 1007.54 1007.24 1007.45 1008.36 1008.25 1008.74 1008.90 1008.97 1009.32 1009.44 1009.66 1010.23 1011.13 1011.72 1012.28 1012.81 1013.46 1014.33 1015.28 1015.82 1016.49 1017.48 1017.97 1018.68 1019.22 1019.76 1020.06 1020.47 1020.79 1021.03 1021.19 1021.34 1021.44 1021.60 1021.70 1021.64 1021.65
1007.98 1007.53 1006.98 1006.79 1007.10 1007.42 1006.92 1006.97 1007.37 1007.31 1007.22 1007.43 1008.37 1008.66 1008.46 1009.32 1009.70 1009.88 1010.26 1010.67 1011.44 1012.14 1012.92 1013.66 1014.60 1015.42 1016.13 1016.73 1017.45 1017.85 1018.50 1018.90 1019.46 1019.91 1020.12 1020.43 1020.75 1021.10 1021.29 1021.48 1021.43 1021.57 1021.56 1021.67
1007.97 1007.88 1007.32 1007.02 1006.59 1006.24 1007.05 1006.83 1006.94 1006.56 1007.07 1006.66 1007.70 1008.32 1009.42 1009.79 1010.20 1010.40 1010.83 1011.34 1011.77 1012.33 1013.10 1013.97 1014.99 1015.60 1016.02 1016.76 1017.64 1017.94 1018.48 1018.86 1019.09 1019.66 1020.01 1020.40 1020.49 1020.85 1021.18 1021.20 1021.29 1021.41 1021.50 1021.39
1008.43 1007.84 1007.26 1006.88 1007.01 1007.01 1006.48 1006.05 1006.27 1005.93 1006.96 1007.52 1008.05 1008.95 1009.90 1010.29 1010.75 1011.30 1011.85 1012.44 1012.89 1013.30 1013.96 1014.62 1015.38 1015.97 1016.66 1017.20 1017.61 1018.05 1018.57 1018.88 1018.80 1019.19 1019.70 1019.94 1020.38 1020.57 1020.79 1020.98 1021.01 1020.97 1021.38 1021.34
1008.60 1008.42 1007.72 1007.29 1007.32 1007.30 1006.80 1006.90 1006.67 1006.35 1006.44 1007.02 1007.58 1009.06 1010.25 1011.00 1011.47 1011.98 1012.56 1013.30 1013.87 1014.48 1014.84 1015.17 1015.77 1016.61 1017.04 1017.66 1018.01 1018.14 1018.82 1019.10 1019.33 1019.40 1019.74 1020.02 1020.10 1020.50 1020.49 1020.64 1020.82 1020.82 1021.00 1021.04
1009.13 1008.94 1008.44 1007.72 1007.49 1007.66 1007.41 1007.34 1007.17 1006.65 1006.31 1007.07 1007.79 1009.15 1010.34 1011.04 1011.76 1012.61 1013.31 1013.91 1014.51 1014.98 1015.38 1015.60 1016.09 1016.78 1017.51 1017.92 1018.54 1018.92 1019.19 1019.34 1019.84 1019.90 1020.22 1020.15 1020.28 1020.54 1020.79 1020.63 1020.80 1020.86 1020.79 1020.77
1009.54 1009.53 1009.42 1009.08 1008.66 1008.30 1008.24 1007.86 1007.59 1007.29 1007.28 1007.20 1007.77 1008.74 1009.95 1011.02 1012.09 1013.02 1013.86 1014.54 1015.07 1015.67 1016.12 1016.48 1016.74 1017.01 1017.50 1018.18 1018.73 1019.04 1019.24 1019.52 1019.78 1019.82 1020.27 1020.35 1020.38 1020.52 1020.81 1020.92 1020.87 1021.04 1020.94 1020.77
1010.23 1010.44 1010.21 1009.74 1009.42 1009.10 1008.63 1008.66 1008.48 1008.47 1008.54 1008.49 1008.68 1009.44 1010.42 1011.82 1012.83 1013.82 1014.44 1015.14 1015.75 1016.33 1016.78 1017.27 1017.50 1017.70 1017.90 1018.54 1018.96 1019.50 1019.82 1019.79 1019.76 1020.17 1020.66 1020.71 1020.70 1020.60 1020.70 1021.00 1020.92 1021.20 1021.08 1021.06
1010.96 1010.89 1011.00 1010.47 1010.21 1009.66 1009.35 1009.96 1009.68 1009.62 1009.64 1009.68 1009.53 1010.00 1011.20 1012.29 1013.34 1014.43 1015.15 1015.82 1016.49 1017.10 1017.77 1018.21 1018.58 1018.98 1019.26 1019.44 1019.74 1019.81 1020.30 1020.51 1020.43 1020.54 1020.93 1021.25 1020.90 1020.63 1020.74 1020.99 1020.99 1021.17 1021.24 1021.22
1011.58 1011.82 1011.64 1011.35 1010.70 1010.40 1011.10 1011.20 1010.74 1010.71 1010.54 1010.64 1010.75 1011.03 1012.32 1013.61 1014.60 1015.24 1015.84 1016.44 1017.22 1017.81 1018.29 1018.80 1019.44 1019.88 1020.16 1020.51 1020.51 1020.57 1021.00 1020.98 1021.09 1021.05 1021.11 1021.54 1021.51 1021.41 1021.52 1021.26 1021.20 1021.34 1021.54 1021.52
1012.53 1012.27 1012.34 1012.26 1012.11 1011.82 1011.55 1011.77 1011.46 1011.89 1011.24 1011.36 1011.55 1012.42 1013.54 1014.61 1015.46 1016.38 1016.82 1017.08 1017.56 1018.37 1018.85 1019.46 1020.16 1020.64 1020.94 1020.90 1021.16 1021.13 1021.70 1021.65 1021.44 1021.66 1021.51 1021.85 1022.02 1021.60 1021.59 1021.60 1021.84 1021.81 1021.73 1021.74
1012.72 1012.68 1012.30 1012.94 1012.36 1011.92 1012.34 1012.76 1012.86 1012.72 1011.61 1011.76 1012.20 1013.05 1013.86 1014.64 1015.32 1016.19 1017.40 1018.08 1018.48 1019.06 1019.47 1020.06 1020.79 1021.16 1021.50 1021.90 1021.90 1021.47 1022.16 1022.41 1022.25 1021.98 1022.09 1022.08 1022.17 1022.08 1022.25 1022.43 1022.36 1022.14 1022.44 1022.57
1013.73 1013.62 1013.32 1013.43 1013.11 1013.11 1013.40 1013.28 1012.93 1012.94 1013.44 1012.64 1012.81 1013.27 1013.86 1014.54 1015.15 1016.34 1017.61 1018.52 1019.08 1019.50 1020.21 1020.72 1020.86 1021.12 1021.66 1021.92 1022.02 1022.06 1022.59 1022.95 1022.78 1022.59 1022.81 1022.79 1022.80 1022.86 1022.83 1022.91 1023.11 1022.98 1022.98 1022.88
1014.87 1014.63 1014.36 1014.42 1014.04 1014.35 1014.39 1013.72 1013.68 1014.18 1013.60 1013.46 1013.60 1013.65 1014.23 1015.64 1016.44 1017.08 1018.04 1018.74 1019.42 1020.11 1020.65 1021.22 1021.34 1021.81 1022.18 1022.37 1022.46 1022.79 1022.94 1023.32 1023.24 1023.11 1023.01 1023.30 1023.27 1023.13 1023.10 1023.23 1023.51 1023.35 1023.29 1023.30
1015.75 1015.60 1015.32 1015.44 1015.01 1015.28 1015.31 1015.09 1014.80 1014.84 1014.62 1014.05 1013.96 1014.33 1015.28 1016.10 1017.27 1017.76 1018.68 1019.34 1020.09 1020.54 1021.04 1021.56 1021.97 1022.45 1022.85 1023.08 1023.03 1023.16 1023.56 1023.55 1023.59 1023.49 1023.61 1023.76 1023.72 1023.44 1023.57 1023.75 1023.92 1023.65 1023.90 1023.90
1016.15 1016.22 1015.74 1015.74 1015.58 1015.35 1015.44 1015.44 1015.46 1015.28 1014.87 1014.70 1014.56 1015.12 1015.74 1016.56 1017.74 1018.62 1019.46 1020.08 1020.27 1021.34 1021.82 1022.12 1022.36 1022.68 1023.22 1023.58 1023.80 1023.88 1023.90 1023.93 1023.82 1024.00 1024.18 1024.05 1023.96 1024.04 1024.04 1024.16 1024.32 1024.61 1024.78 1024.73
1016.13 1016.08 1015.72 1015.47 1015.42 1015.48 1015.37 1015.45 1015.63 1015.54 1015.39 1015.31 1015.52 1015.64 1016.22 1017.24 1018.37 1019.02 1019.83 1020.58 1021.10 1021.69 1022.28 1022.62 1022.66 1022.95 1023.54 1023.86 1024.08 1024.22 1024.38 1024.38 1024.32 1024.48 1024.64 1024.62 1024.64 1024.77 1024.98 1025.29 1025.58 1025.84 1026.42 1026.18
1016.06 1015.80 1015.76 1015.42 1015.57 1015.62 1015.73 1015.97 1015.96 1015.83 1015.76 1015.84 1015.88 1016.38 1016.94 1017.33 1018.37 1019.33 1020.28 1021.10 1021.46 1021.94 1022.31 1022.52 1022.92 1023.21 1023.69 1024.10 1024.29 1024.56 1024.72 1024.78 1024.60 1024.72 1024.93 1025.04 1025.03 1025.14 1025.25 1025.36 1026.10 1027.10 1027.18 1027.40
Wind_Speed
4 10 12 10 7 1 3 7 10 9 4 10 5 4 10 13 16 19 17 16 16 17 15 13 14 13 13 11 11 11 10 9 7 6 5 3 4 4 3 2 3 5 4 4
6 15 10 6 4 2 6 12 8 7 6 4 8 4 9 13 14 15 17 17 18 14 14 14 14 13 14 13 11 11 11 11 8 6 4 3 4 3 2 3 3 4 5 5
11 1 10 9 7 7 3 4 9 7 8 6 10 5 7 11 13 8 12 16 16 16 16 16 16 15 14 14 13 11 11 11 10 8 6 4 4 3 4 5 5 5 5 5
8 4 14 10 11 8 7 5 9 14 8 6 5 2 2 11 17 14 13 13 17 18 18 17 18 17 16 14 13 12 10 10 10 10 8 9 5 4 3 5 5 5 5 6
6 12 11 11 9 9 2 8 11 8 5 5 5 4 5 12 14 21 18 18 16 19 19 18 19 19 17 14 13 12 10 10 9 9 8 6 6 3 4 4 5 5 5 5
4 3 8 7 5 11 10 15 11 4 3 4 7 5 8 13 17 19 21 17 19 19 19 19 20 16 12 13 13 13 13 12 10 9 8 7 7 6 5 6 5 4 4 4
7 6 4 3 7 6 10 15 5 4 5 2 1 8 4 14 11 22 22 22 19 18 18 17 16 16 16 14 13 12 13 12 11 10 9 7 5 6 6 5 5 5 5 5
10 10 10 7 10 7 14 11 6 6 6 5 4 7 2 2 9 14 18 17 14 17 16 17 18 16 11 13 9 12 12 12 11 9 9 6 5 3 4 5 4 5 5 4
9 8 3 8 7 12 7 9 2 3 2 6 4 3 4 3 8 14 18 17 20 17 17 17 15 14 15 13 11 10 9 10 11 11 8 7 5 5 4 4 4 4 4 4
3 5 4 8 7 3 7 11 9 4 7 7 5 4 2 1 3 13 16 18 20 18 17 15 16 13 10 11 7 7 8 10 11 11 9 7 6 5 4 4 4 4 5 5
5 2 5 6 9 13 7 6 1 2 3 6 6 4 2 2 5 9 11 9 14 17 16 15 12 11 11 11 10 7 7 8 10 10 8 7 8 7 6 5 5 5 6 5
2 2 4 2 2 3 2 9 9 9 8 1 3 2 2 2 8 10 10 8 8 9 12 13 9 12 13 10 9 9 7 7 9 10 11 11 9 8 8 7 6 7 6 6
7 2 3 6 6 4 3 3 2 4 3 6 6 3 3 5 8 10 11 10 11 9 11 10 7 6 6 8 9 10 7 7 6 6 6 6 6 8 8 8 7 7 7 7
2 4 3 3 3 2 4 4 4 5 7 7 3 7 10 9 9 10 9 10 11 9 9 10 11 10 9 8 7 8 7 5 5 7 7 7 7 6 5 7 7 6 6 6
2 5 4 6 8 10 9 5 3 1 2 7 8 12 14 11 11 9 11 9 12 10 8 7 7 10 12 10 9 4 5 7 9 8 5 5 7 6 5 5 5 4 4 4
5 3 4 4 8 2 12 12 8 7 3 4 10 5 12 11 10 10 8 11 10 10 9 8 7 8 9 9 9 7 4 5 8 5 3 1 5 6 6 5 4 2 3 2
4 2 2 2 8 4 4 10 6 2 2 1 6 2 15 14 13 10 10 11 12 11 11 10 10 10 9 8 8 10 7 6 9 8 8 5 4 3 5 5 5 3 3 3
4 3 0 2 7 4 4 2 7 3 3 2 4 6 13 11 8 9 9 12 12 12 12 11 10 10 10 10 11 10 9 8 7 9 11 8 5 6 6 7 7 5 3 3
4 3 4 4 6 2 3 4 6 8 2 3 5 12 14 15 11 7 6 11 14 13 13 12 10 10 8 10 8 9 8 8 8 9 10 9 6 8 8 8 5 4 4 4
6 6 2 2 5 6 5 2 7 6 1 2 8 14 17 15 10 8 10 11 12 12 13 13 12 11 11 8 6 10 8 7 8 10 9 9 9 8 8 6 6 7 6 6
4 4 2 2 1 3 4 12 4 3 4 2 10 14 18 14 3 16 16 11 11 13 13 10 8 11 9 7 7 10 8 8 6 7 7 8 8 9 8 8 6 7 8 9
2 1 1 1 1 3 8 2 3 6 6 6 9 12 15 8 15 18 16 16 14 14 14 11 10 10 7 6 7 8 8 5 6 6 8 8 8 7 7 8 7 8 7 8
3 1 1 3 2 3 4 3 8 6 7 5 9 10 10 14 15 16 14 14 13 13 11 9 10 10 7 6 5 8 6 5 6 7 7 7 7 8 8 8 7 6 7 6
3 3 2 4 5 2 1 1 4 5 6 5 6 11 13 13 14 13 12 11 12 9 8 9 10 9 8 7 7 7 6 5 7 8 7 7 7 7 7 6 6 6 5 5
1 2 2 2 3 4 1 4 5 6 4 6 8 11 13 15 14 13 11 10 9 8 8 7 7 7 8 7 6 6 6 7 8 7 6 6 6 6 6 8 6 6 9 8
5 4 4 3 2 1 3 4 4 3 2 4 9 11 12 15 15 13 10 7 8 8 7 7 7 8 9 7 7 6 5 6 7 7 5 4 4 4 4 5 7 12 11 12
Wind_Direction
187 189 195 189 225 306 141 169 161 109 152 144 134 133 165 171 179 179 185 188 195 203 200 191 189 188 187 186 180 185 182 174 166 145 160 157 158 164 157 173 195 176 178 166
169 212 176 176 208 223 133 153 104 89 133 134 166 104 154 169 174 179 184 191 199 194 192 192 196 190 190 189 187 185 191 179 190 165 161 168 157 168 160 179 187 194 181 180
190 174 174 176 177 178 179 176 161 140 129 109 148 97 135 181 178 185 188 201 204 194 194 193 194 194 190 193 187 189 191 184 182 170 149 125 129 131 174 182 187 198 193 190
200 122 177 174 182 194 196 176 153 143 169 152 220 127 268 159 191 198 201 197 207 201 198 194 193 195 195 193 186 186 192 187 184 179 183 174 180 177 198 187 179 176 189 186
142 147 170 183 182 182 183 173 153 152 101 157 167 128 179 180 201 197 198 204 206 206 198 196 199 199 193 183 186 186 184 187 187 193 204 183 176 172 150 173 174 178 183 184
127 131 175 196 176 186 124 119 102 92 356 248 197 212 182 189 215 204 195 193 204 204 202 202 200 195 190 182 184 185 183 193 192 205 210 209 211 165 166 175 180 182 180 176
186 169 164 173 152 176 188 164 134 167 197 223 205 203 250 197 216 202 195 193 194 201 201 203 192 190 186 186 189 187 187 195 191 200 215 220 229 177 196 189 202 191 196 191
204 205 202 166 214 181 185 197 200 179 199 164 144 219 194 301 238 212 195 205 194 199 199 200 195 190 168 176 178 191 190 196 199 201 205 212 201 219 212 187 201 217 222 213
192 228 181 194 165 181 183 222 260 106 77 210 169 236 226 11 170 184 183 187 200 203 198 196 184 174 167 167 168 194 192 194 198 197 197 200 213 206 213 203 221 226 226 236
155 231 193 157 157 145 207 172 190 218 182 212 192 256 174 89 132 189 182 190 197 197 193 182 171 151 143 144 129 164 187 200 200 201 202 193 198 211 199 199 198 201 198 209
164 245 129 159 203 181 170 192 182 177 309 221 181 208 119 222 171 186 187 174 186 185 174 163 156 151 140 144 146 136 161 197 190 198 200 213 206 194 209 192 184 181 210 208
180 180 245 101 5 273 224 196 194 214 180 93 321 143 316 146 162 166 157 139 136 149 151 155 153 160 159 147 137 141 159 195 202 189 196 202 200 195 193 203 189 183 190 204
183 155 203 148 151 145 120 104 179 126 146 182 232 153 158 145 161 159 162 143 126 109 130 132 117 158 154 150 143 125 130 127 130 149 172 188 186 202 198 192 197 195 197 195
25 88 323 251 80 74 126 71 153 278 211 158 218 157 192 184 172 163 155 142 146 133 139 147 158 159 156 138 133 149 156 132 124 121 131 134 139 140 163 150 158 174 185 187
342 72 54 67 82 85 84 79 140 185 311 234 177 194 186 180 172 156 155 139 135 133 130 138 142 143 133 137 141 143 155 170 180 167 159 169 170 146 150 153 138 150 159 164
14 88 13 73 19 7 80 57 88 70 136 60 147 164 167 152 136 137 130 129 120 118 122 121 100 95 108 118 115 111 87 204 183 159 126 29 208 173 169 159 139 168 167 151
23 123 60 27 348 305 178 17 33 92 75 121 184 354 162 159 155 139 130 128 126 126 121 110 97 93 84 93 107 105 103 97 101 115 110 84 29 112 142 143 143 158 135 135
120 89 205 357 320 222 46 320 33 62 83 261 297 162 166 133 101 117 129 125 120 119 113 105 103 101 99 95 88 96 94 84 89 94 102 91 84 80 85 96 96 94 81 92
47 140 100 142 236 127 161 10 33 340 30 2 147 142 128 122 102 98 148 143 129 126 117 109 104 102 95 95 93 77 65 83 90 88 89 88 92 93 75 72 65 64 105 93
33 52 103 146 215 226 85 27 336 299 312 148 169 158 148 146 169 154 140 127 128 128 121 119 114 105 91 80 77 91 78 67 75 81 77 76 72 75 80 75 69 60 71 86
3 5 52 133 179 83 6 320 314 256 49 197 183 172 163 179 350 137 138 132 129 126 125 114 111 111 110 110 105 93 95 78 71 84 84 77 83 90 88 88 83 90 93 86
352 6 52 108 188 194 354 306 325 3 321 252 204 186 178 132 144 141 144 140 137 135 128 123 119 107 103 109 110 100 89 80 80 82 75 68 61 56 67 80 81 73 78 79
198 325 105 249 45 22 320 337 325 313 287 300 207 188 155 145 151 147 145 138 140 138 130 126 118 108 95 93 102 109 103 101 92 82 79 75 64 62 59 60 53 60 57 67
152 182 222 197 173 244 20 65 21 338 306 298 193 160 150 149 152 148 145 137 125 134 134 134 134 126 116 107 102 105 111 102 96 88 78 70 64 64 61 63 58 54 45 57
26 179 159 276 237 268 175 50 17 28 45 110 142 150 142 145 152 149 144 139 133 137 144 147 131 129 128 119 108 108 116 123 112 102 92 87 78 69 83 69 49 84 54 34
189 170 194 234 54 348 55 8 354 357 36 153 146 146 155 156 155 144 140 136 143 158 157 152 149 145 141 141 130 119 126 131 126 123 117 91 101 101 98 109 102 60 68 63